SL-12 R/B(AUX MOTOR), 36407

Orbit data source: Space-Track

SL-12 R/B(AUX MOTOR), 36407 is space debris in HEO originally from a launch on Mon, 01 Mar 2010 UTC launched from the Tyuratam Missile And Space Complex (TTMTR). Debris objects in space refer to the collection of defunct objects orbiting the Earth. Examples of debris include non-operational satellites, rocket bodies, and fragments generated from explosions, collisions, or faulty payload assembly.

Loading next visibility...
Identifier
36407, 2010-007H
Orbit
HEO
Country
Flag of CISCIS
Related business
Manufacturer
RKKE
Mission
Spacecraft
Bus & Motor
SOZ, Unknown motor
Mass
56 kg wet, 56 kg dry
Launch date (UTC)
2010-03-01 (16 years ago)
Launch vehicle
Unknown
Launch site
Tyuratam Missile And Space Complex (TTMTR)
Object type
Payload
Rocket body
Debris
Shape & HBR
Cyl, 0.6 m
Radar Cross Section
0.660 m², Medium (>0.1 m² and < 1m²)

Expand to show TLE details & history
Last TLE update: 1 day ago

TLE from 1 day ago
0 SL-12 R/B(AUX MOTOR)
1 36407U 10007H   25287.19256251 -.00000016  00000-0 -41794-4 0  9991
2 36407  65.3336 266.5708 5603712 282.4088  23.0357  4.25536568241920
Epoch: 2025-10-14T04:37Z
TLE epoch observation values (Epoch: 2025-10-14T04:37:17.400Z)
Latitude
-0.00011°
Longitude
174.26349°
Altitude
3,477.845 km
Speed
7.491 km/s
True Right ascension
17h 46m 16s
True Declination
0° 00' 00"
Sunlit
Object was in daylight at epoch
Visualization orbit readout
Latitude
Unknown
Longitude
Unknown
Altitude
Unknown
Speed
Unknown
Apparent Right ascension
Unknown
Apparent Declination
Unknown
Sunlit
N/A
Visualization observer readout
Local Sidereal Time
07:11:03
Azimuth
Unknown
Elevation
Unknown
Doppler factor
Unknown
Orbital elements
Apogee altitude
18,719.975 km
Perigee altitude
693.163 km
Semi-major axis
16,084.706 km
Eccentricity
0.56037
Inclination
65.3336°
RAAN
266.5708°
Arg. of periapsis
282.4088°
True anomaly
77.58932°
Mean anomaly
23.0357°
Eccentric anomaly
46.21501°
Mean motion
1.06396 °/min
Orbital period
338.36 mins
BSTAR
-0.000041794
Loading maneuver chart data...
Computing Atmospheric mass density...
Loading historical data...
Loading historical data...
Loading historical data...
Loading historical data...
Loading historical data...
Loading historical data...
Loading historical data...

Documentation

Showing up to 5 results
|